Date,TemperatureHighF,TemperatureAvgF,TemperatureLowF,DewpointHighF,DewpointAvgF,DewpointLowF,HumidityHigh,HumidityAvg,HumidityLow,PressureMaxIn,PressureMinIn,WindSpeedMaxMPH,WindSpeedAvgMPH,GustSpeedMaxMPH,PrecipitationSumIn
2013-2-1,22,20,18,18,15,12,91,82,71,30.18,29.67,11,4,0,0.00
2013-2-2,20,18,15,19,12,8,98,79,69,30.19,30.00,16,5,0,0.00
2013-2-3,26,19,9,21,15,6,91,83,66,29.99,29.78,9,2,0,0.01
2013-2-4,23,20,17,15,12,9,85,71,56,29.94,29.83,12,4,0,0.00
2013-2-5,25,20,11,17,13,8,89,77,64,29.99,29.85,5,1,0,0.00
2013-2-6,28,22,10,25,15,6,91,74,50,30.40,29.87,14,3,0,0.00
2013-2-7,32,21,8,20,13,5,88,73,56,30.48,30.18,7,1,0,0.00
2013-2-8,36,29,21,30,25,18,96,85,63,30.17,29.79,15,3,0,0.01
2013-2-9,20,17,12,19,14,10,94,89,83,30.42,29.96,8,2,0,0.01
2013-2-10,37,23,6,25,16,3,93,76,45,30.46,30.05,9,1,0,0.10
2013-2-11,45,39,35,39,31,18,91,74,48,30.05,29.57,19,9,0,0.08
2013-2-12,36,34,31,30,27,25,89,77,67,29.94,29.69,19,7,0,0.08
2013-2-13,39,32,24,26,24,21,89,74,55,29.90,29.71,10,1,0,0.00
2013-2-14,40,32,21,34,27,19,94,81,58,29.94,29.78,11,3,0,0.08
2013-2-15,39,36,27,34,27,21,91,70,61,30.03,29.78,13,4,0,0.09
2013-2-16,30,24,18,20,16,12,87,71,55,30.04,29.91,6,1,0,0.00
2013-2-17,20,15,12,12,9,6,90,78,64,30.13,29.88,14,4,0,0.00
2013-2-18,26,19,12,18,14,9,90,79,64,30.30,30.02,7,1,0,0.03
2013-2-19,39,32,22,35,26,15,92,77,56,30.01,29.57,18,5,0,0.01
2013-2-20,27,23,21,21,16,12,89,74,61,30.01,29.74,18,8,0,0.01
2013-2-21,21,18,14,19,15,11,96,88,76,30.42,29.98,14,4,0,0.00
2013-2-22,36,28,11,27,22,9,94,79,61,30.42,30.07,19,4,0,0.00
2013-2-23,39,36,33,37,32,27,93,85,73,30.07,29.86,12,4,0,0.01
2013-2-24,33,31,30,30,27,25,93,85,74,30.02,29.84,8,2,0,0.02
2013-2-25,38,34,30,31,29,26,93,82,64,30.23,30.02,8,1,0,0.04
2013-2-26,44,36,25,32,28,23,92,75,56,30.25,29.88,16,4,0,0.01
2013-2-27,40,36,33,38,34,32,99,94,87,29.89,29.54,8,2,0,0.22
2013-2-28,40,36,33,36,33,32,97,91,74,29.67,29.54,7,2,0,0.01